This demonstration page uses our WeatherBlox Daily Observations layout. Learn more.

38.88101, -77.10428

Hourly Observations for April 23, 2020

Temp ( °F °C ) Dew Point ( °F °C ) Humidity (%) Winds ( mph kmh ) Pressure ( in mb ) Visibility ( mi km ) Precip ( " mm )
12:52 am 00:52 Cloudy 54 12.2 33 0.6 45 45 N 8 13 30.06 1018 10 16.0934 0 0
1:52 am 01:52 Cloudy 54 12.2 32 0 43 43 NE 8 13 30.03 1017 10 16.0934 0 0
2:52 am 02:52 Cloudy 52 11.1 33 0.6 49 49 NE 7 11 30.02 1017 10 16.0934 0 0
3:52 am 03:52 Cloudy 51 10.6 34 1.1 52 52 SE 5 7 30.02 1017 10 16.0934 0 0
4:52 am 04:52 Cloudy 51 10.6 37 2.8 59 59 E 3 6 30.04 1017 10 16.0934 0 0
5:52 am 05:52 Cloudy 50 10 36 2.2 59 59 ESE 5 7 30.04 1017 10 16.0934 0 0
6:52 am 06:52 Cloudy 50 10 35 1.7 57 57 Calm 30.04 1017 10 16.0934 0 0
7:52 am 07:52 Cloudy 50 10 38 3.3 63 63 NE 6 9 30.05 1018 10 16.0934 0 0
8:52 am 08:52 Cloudy 54 12.2 37 2.8 53 53 E 12 19 30.04 1017 10 16.0934 0 0
9:52 am 09:52 Cloudy 55 12.8 37 2.8 51 51 E 6 9 30.03 1017 10 16.0934 0 0
10:52 am 10:52 Cloudy 56 13.3 39 3.9 53 53 ENE 7 11 30.02 1017 10 16.0934 0 0
11:52 am 11:52 Cloudy 58 14.4 38 3.3 48 48 Calm 30.01 1016 10 16.0934 0 0
12:52 pm 12:52 Cloudy 59 15 40 4.4 49 49 ENE 3 6 29.98 1015 10 16.0934 0 0
1:52 pm 13:52 Cloudy with Light Rain 59 15 43 6.1 56 56 NE 7 11 29.98 1015 10 16.0934 0.001 0.001
2:52 pm 14:52 Cloudy with Light Rain 57 13.9 46 7.8 67 67 NE 8 13 29.98 1015 10 16.0934 0.001 0.001
3:52 pm 15:52 Cloudy with Light Rain 56 13.3 49 9.4 77 77 E 6 9 29.95 1014 7 11.26538 0.02 0.508
5:52 pm 17:52 Cloudy with Light Rain 53 11.7 51 10.6 93 93 Calm 29.92 1013 4 6.43736 0.05 1.27
6:37 pm 18:37 Cloudy with Light Rain 54 12.2 52 11.1 93 93 SE 6 9 29.91 1013 3 4.82802 0.04 1.016
6:52 pm 18:52 Cloudy with Rain 54 12.2 53 11.7 97 97 Calm 29.91 1013 2 3.21868 0.07 1.778
7:25 pm 19:25 Cloudy with Rain 54 12.2 53 11.7 97 97 SE 5 7 29.89 1012 2 3.21868 0.05 1.27
7:52 pm 19:52 Cloudy with Light Rain 55 12.8 54 12.2 96 96 SE 5 7 29.88 1012 2 3.21868 0.1 2.54
8:04 pm 20:04 Cloudy with Light Rain 55 12.8 54 12.2 96 96 SSE 3 6 29.88 1012 3 4.82802 0.02 0.508
8:22 pm 20:22 Cloudy with Light Rain 55 12.8 54 12.2 96 96 SE 5 7 29.87 1012 3 4.82802 0.05 1.27
8:52 pm 20:52 Cloudy with Rain 55 12.8 53 11.7 93 93 ESE 5 7 29.85 1011 3 4.82802 0.11 2.794
9:45 pm 21:45 Cloudy with Rain 55 12.8 53 11.7 93 93 ESE 3 6 29.84 1011 3 4.82802 0.17 4.318
9:52 pm 21:52 Cloudy with Rain 55 12.8 54 12.2 96 96 Calm 29.84 1011 3 4.82802 0.2 5.08
10:15 pm 22:15 Cloudy with Light Rain 55 12.8 53 11.7 93 93 E 3 6 29.84 1011 4 6.43736 0.04 1.016
10:52 pm 22:52 Cloudy with Light Rain 54 12.2 53 11.7 97 97 ENE 6 9 29.82 1010 4 6.43736 0.1 2.54
11:22 pm 23:22 Cloudy with Light Rain 54 12.2 53 11.7 97 97 ENE 5 7 29.8 1009 4 6.43736 0.03 0.762
11:24 pm 23:24 Cloudy with Light Rain 54 12.2 53 11.7 97 97 ENE 3 6 29.8 1009 4 6.43736 0.03 0.762
11:52 pm 23:52 Cloudy with Light Rain 55 12.8 53 11.7 93 93 NE 5 7 29.78 1008 7 11.26538 0.04 1.016

Powered by AerisWeather